Toledo, OH

12:42 PM EDT on May 27, 2017 (GMT -0400)
Toledo Express

Weather History for KTOL - January, 2013

Change the Weather History Date:

Tuesday, January 29, 2013

  Actual Average Record
Temperature  
Mean Temperature 49 °F 26 °F  
Max Temperature 59 °F 33 °F 62 °F (1914)
Min Temperature 38 °F 18 °F -9 °F (1963)
Degree Days  
Heating Degree Days 16 39  
Month to date heating degree days 1084 1149  
Since 1 July heating degree days 3335 3474  
Cooling Degree Days 0 0  
Month to date cooling degree days 0 0  
Year to date cooling degree days 0 0  
Moisture  
Dew Point 48 °F    
Average Humidity 90    
Maximum Humidity 100    
Minimum Humidity 80    
Precipitation  
Precipitation 0.07 in 0.07 in 0.82 in (1969)
Month to date precipitation 3.22 1.93  
Year to date precipitation 3.22 1.93  
Snow  
Snow 0.00 in 0.40 in - ()
Month to date snowfall 2.9 10.8  
Since 1 July snowfall 9.9 20.3  
Snow Depth 0.00 in    
Sea Level Pressure  
Sea Level Pressure 29.80 in    
Wind  
Wind Speed 11 mph (South)    
Max Wind Speed 20 mph    
Max Gust Speed 30 mph    
Visibility 4 miles    
Events Fog , Rain    
T = Trace of Precipitation, MM = Missing Value Source: NWS Daily Summary

Daily Weather History Graph

Daily Weather History Graph

Search for Another Location

Airport or City:

Trip Planner

Search our weather history database for the weather conditions in past years. The results will help you decide how hot, cold, wet, or windy it might be!

Date:

Astronomy

Jan. 29, 2013 Rise Set
Actual Time 7:49 AM EST 5:47 PM EST
Civil Twilight 7:20 AM EST 6:17 PM EST
Nautical Twilight 6:46 AM EST 6:50 PM EST
Astronomical Twilight 6:14 AM EST 7:23 PM EST
Moon 8:45 PM EST (1/29) 8:43 AM EST (1/29)
Length of Visible Light 10h 57m
Length of Day
9h 57m
Waning Gibbous, 94% of the Moon is Illuminated
Jan 29
Waning Gibbous
Feb 3
Last Quarter
Feb 10
New
Feb 17
First Quarter
Feb 25
Full

Hourly Weather History & Observations

Time (EST) Temp. Windchill Dew Point Humidity Pressure Visibility Wind Dir Wind Speed Gust Speed Precip Events Conditions
12:52 AM 41.0 °F 37.1 °F 39.9 °F 96% 30.01 in 0.2 mi ENE 5.8 mph - N/A Fog Fog
1:52 AM 41.0 °F 36.4 °F 39.9 °F 96% 29.99 in 0.2 mi East 6.9 mph - N/A Fog Fog
2:09 AM 41.0 °F 35.8 °F 39.2 °F 93% 29.97 in 0.8 mi ESE 8.1 mph - N/A   Mist
2:52 AM 39.0 °F 33.4 °F 37.9 °F 96% 29.98 in 0.8 mi ESE 8.1 mph - N/A   Mist
3:52 AM 37.9 °F 32.7 °F 37.9 °F 100% 29.94 in 1.5 mi East 6.9 mph - 0.01 in   Overcast
4:00 AM 37.4 °F 32.1 °F 37.4 °F 100% 29.92 in 0.8 mi East 6.9 mph - N/A   Overcast
4:18 AM 37.4 °F 31.4 °F 37.4 °F 100% 29.91 in 0.2 mi ESE 8.1 mph - N/A Fog Fog
4:52 AM 39.0 °F 35.7 °F 37.9 °F 96% 29.91 in 0.2 mi East 4.6 mph - 0.02 in Fog Fog
5:52 AM 39.0 °F 34.8 °F 37.9 °F 96% 29.89 in 0.2 mi East 5.8 mph - N/A Fog Fog
6:52 AM 45.0 °F 41.8 °F 44.1 °F 97% 29.85 in 0.8 mi SSE 5.8 mph - N/A   Mist
7:03 AM 46.4 °F 42.9 °F 44.6 °F 93% 29.84 in 1.2 mi South 6.9 mph - N/A   Overcast
7:10 AM 46.4 °F 42.4 °F 46.4 °F 100% 29.84 in 1.8 mi South 8.1 mph - N/A   Overcast
7:17 AM 48.2 °F - 46.4 °F 93% 29.84 in 2.5 mi SSW 9.2 mph - N/A   Overcast
7:24 AM 48.2 °F - 46.4 °F 93% 29.84 in 2.5 mi SSW 11.5 mph - N/A   Overcast
7:31 AM 48.2 °F - 48.2 °F 100% 29.84 in 3.0 mi South 10.4 mph - N/A   Overcast
7:52 AM 50.0 °F - 48.0 °F 93% 29.84 in 4.0 mi SSW 13.8 mph 18.4 mph N/A   Overcast
8:52 AM 51.1 °F - 48.9 °F 92% 29.86 in 3.0 mi SW 11.5 mph 19.6 mph N/A   Overcast
9:12 AM 51.8 °F - 48.2 °F 88% 29.84 in 2.0 mi SW 12.7 mph 20.7 mph 0.01 in Rain Rain
9:35 AM 51.8 °F - 50.0 °F 94% 29.83 in 1.8 mi SSW 10.4 mph 18.4 mph 0.02 in   Overcast
9:52 AM 52.0 °F - 50.0 °F 93% 29.83 in 2.5 mi SSW 16.1 mph 19.6 mph 0.02 in   Overcast
10:21 AM 53.6 °F - 51.8 °F 94% 29.82 in 1.8 mi SSW 10.4 mph 19.6 mph N/A   Overcast
10:33 AM 53.6 °F - 51.8 °F 94% 29.83 in 2.0 mi SSW 15.0 mph 21.9 mph N/A   Overcast
10:50 AM 53.6 °F - 51.8 °F 94% 29.82 in 3.0 mi SSW 10.4 mph 21.9 mph 0.01 in   Overcast
10:52 AM 54.0 °F - 52.0 °F 93% 29.83 in 3.0 mi SW 13.8 mph 21.9 mph 0.01 in   Overcast
11:52 AM 54.0 °F - 52.0 °F 93% 29.83 in 4.0 mi SSW 10.4 mph 20.7 mph 0.00 in Rain Light Rain
12:43 PM 55.4 °F - 51.8 °F 88% 29.79 in 4.0 mi SSW 9.2 mph 17.3 mph 0.00 in   Overcast
12:52 PM 55.0 °F - 52.0 °F 89% 29.80 in 4.0 mi SSW 11.5 mph - 0.00 in   Overcast
1:45 PM 55.4 °F - 51.8 °F 88% 29.76 in 5.0 mi SSW 12.7 mph - N/A   Overcast
1:52 PM 55.9 °F - 52.0 °F 87% 29.77 in 5.0 mi SSW 11.5 mph - N/A   Overcast
1:59 PM 55.4 °F - 53.6 °F 94% 29.76 in 5.0 mi SSW 13.8 mph 21.9 mph N/A   Overcast
2:52 PM 57.9 °F - 53.1 °F 84% 29.75 in 6.0 mi SSW 15.0 mph 20.7 mph 0.01 in   Haze
3:18 PM 57.2 °F - 53.6 °F 88% 29.74 in 6.0 mi SSW 15.0 mph 23.0 mph 0.00 in   Haze
3:52 PM 57.9 °F - 53.1 °F 84% 29.74 in 6.0 mi South 12.7 mph - 0.00 in   Haze
4:52 PM 59.0 °F - 53.1 °F 81% 29.73 in 6.0 mi SSW 15.0 mph 26.5 mph N/A   Haze
5:06 PM 59.0 °F - 53.6 °F 82% 29.73 in 7.0 mi SSW 17.3 mph 25.3 mph N/A   Overcast
5:52 PM 57.9 °F - 52.0 °F 81% 29.73 in 8.0 mi SSW 18.4 mph 25.3 mph N/A   Overcast
6:52 PM 57.9 °F - 52.0 °F 81% 29.72 in 8.0 mi SSW 9.2 mph 17.3 mph N/A   Overcast
7:52 PM 57.9 °F - 52.0 °F 81% 29.68 in 9.0 mi South 9.2 mph - N/A   Overcast
8:52 PM 57.9 °F - 52.0 °F 81% 29.64 in 10.0 mi South 8.1 mph 16.1 mph N/A   Overcast
9:28 PM 57.2 °F - 51.8 °F 82% 29.61 in 10.0 mi South 9.2 mph 17.3 mph N/A   Overcast
9:52 PM 57.0 °F - 51.1 °F 81% 29.58 in 10.0 mi South 10.4 mph 16.1 mph N/A   Overcast
10:52 PM 57.0 °F - 52.0 °F 83% 29.54 in 10.0 mi South 9.2 mph 20.7 mph N/A   Mostly Cloudy
11:52 PM 59.0 °F - 53.1 °F 81% 29.48 in 10.0 mi South 13.8 mph 23.0 mph N/A   Clear